Change the Weather History Date:

Thursday, September 26, 2013

  Actual Average Record
Temperature  
Mean Temperature 60 °F -  
Max Temperature 69 °F 73 °F 86 °F (1969)
Min Temperature 51 °F 50 °F 37 °F (1967)
Degree Days  
Heating Degree Days 5    
Growing Degree Days 10 (Base 50)    
Moisture  
Dew Point 29 °F    
Average Humidity 32    
Maximum Humidity 51    
Minimum Humidity 21    
Precipitation  
Precipitation 0.00 in - - ()
Sea Level Pressure  
Sea Level Pressure 29.91 in    
Wind  
Wind Speed 21 mph (SSW)    
Max Wind Speed 38 mph    
Max Gust Speed 52 mph    
Visibility 10 miles    
Events      
Averages and records for this station are not official NWS values.
T = Trace of Precipitation, MM = Missing Value Source: NWS Daily Summary

Daily Weather History Graph

Daily Weather History Graph

Search for Another Location

Airport or City:

Trip Planner

Search our weather history database for the weather conditions in past years. The results will help you decide how hot, cold, wet, or windy it might be!

Date:

Astronomy

Sep. 26, 2013 Rise Set
Actual Time 6:11 AM MST 6:10 PM MST
Civil Twilight 5:46 AM MST 6:35 PM MST
Nautical Twilight 5:16 AM MST 7:04 PM MST
Astronomical Twilight 4:47 AM MST 7:34 PM MST
Moon 11:24 PM MST (9/26) 12:52 PM MST (9/26)
Length of Visible Light 12h 49m
Length of Day
11h 59m
Waning Gibbous, 53% of the Moon is Illuminated
Sep 26
Waning Gibbous
Sep 26
Last Quarter
Oct 4
New
Oct 11
First Quarter
Oct 18
Full

Hourly Weather History & Observations

Time (MST) Temp. Dew Point Humidity Pressure Visibility Wind Dir Wind Speed Gust Speed Precip Events Conditions
12:15 AM 57.2 °F 23.0 °F 27% 29.92 in 10.0 mi SSW 11.5 mph 18.4 mph N/A   Clear
12:35 AM 55.4 °F 23.0 °F 29% 29.92 in 10.0 mi SSW 10.4 mph 19.6 mph N/A   Clear
12:55 AM 55.4 °F 23.0 °F 29% 29.92 in 10.0 mi SSW 12.7 mph 21.9 mph N/A   Clear
1:15 AM 55.4 °F 23.0 °F 29% 29.92 in 10.0 mi South 17.3 mph 23.0 mph N/A   Clear
1:35 AM 55.4 °F 23.0 °F 29% 29.92 in 10.0 mi South 17.3 mph 25.3 mph N/A   Clear
1:55 AM 55.4 °F 21.2 °F 26% 29.92 in 10.0 mi SSW 17.3 mph 29.9 mph N/A   Clear
2:15 AM 53.6 °F 21.2 °F 28% 29.92 in 10.0 mi SSW 17.3 mph 27.6 mph N/A   Clear
2:35 AM 53.6 °F 21.2 °F 28% 29.92 in 10.0 mi South 19.6 mph 31.1 mph N/A   Clear
2:55 AM 53.6 °F 23.0 °F 30% 29.91 in 10.0 mi South 17.3 mph 26.5 mph N/A   Clear
3:15 AM 53.6 °F 23.0 °F 30% 29.91 in 10.0 mi South 20.7 mph 27.6 mph N/A   Clear
3:35 AM 53.6 °F 23.0 °F 30% 29.90 in 10.0 mi South 23.0 mph 32.2 mph N/A   Clear
3:55 AM 53.6 °F 23.0 °F 30% 29.91 in 10.0 mi South 16.1 mph 29.9 mph N/A   Clear
4:15 AM 53.6 °F 23.0 °F 30% 29.91 in 10.0 mi South 18.4 mph 25.3 mph N/A   Clear
4:35 AM 51.8 °F 23.0 °F 33% 29.91 in 10.0 mi South 18.4 mph 24.2 mph N/A   Clear
4:55 AM 51.8 °F 23.0 °F 33% 29.92 in 10.0 mi South 19.6 mph 26.5 mph N/A   Clear
5:15 AM 51.8 °F 23.0 °F 33% 29.92 in 10.0 mi South 18.4 mph 24.2 mph N/A   Clear
5:35 AM 51.8 °F 23.0 °F 33% 29.92 in 10.0 mi South 16.1 mph 24.2 mph N/A   Clear
5:55 AM 51.8 °F 23.0 °F 33% 29.92 in 10.0 mi South 17.3 mph 24.2 mph N/A   Clear
6:15 AM 51.8 °F 23.0 °F 33% 29.92 in 10.0 mi South 18.4 mph 28.8 mph N/A   Clear
6:35 AM 51.8 °F 24.8 °F 35% 29.92 in 10.0 mi South 20.7 mph 27.6 mph N/A   Clear
6:55 AM 53.6 °F 23.0 °F 30% 29.93 in 10.0 mi South 21.9 mph - N/A   Clear
7:15 AM 53.6 °F 24.8 °F 33% 29.93 in 10.0 mi South 19.6 mph 27.6 mph N/A   Clear
7:35 AM 55.4 °F 24.8 °F 31% 29.93 in 10.0 mi South 21.9 mph 28.8 mph N/A   Clear
7:55 AM 57.2 °F 24.8 °F 29% 29.93 in 10.0 mi South 20.7 mph 31.1 mph N/A   Clear
8:15 AM 59.0 °F 24.8 °F 27% 29.94 in 10.0 mi South 21.9 mph 26.5 mph N/A   Clear
8:35 AM 59.0 °F 26.6 °F 29% 29.94 in 10.0 mi SSW 21.9 mph 31.1 mph N/A   Clear
8:55 AM 62.6 °F 26.6 °F 26% 29.95 in 10.0 mi South 27.6 mph 32.2 mph N/A   Clear
9:15 AM 62.6 °F 28.4 °F 27% 29.95 in 10.0 mi South 29.9 mph 36.8 mph N/A   Clear
9:35 AM 62.6 °F 30.2 °F 30% 29.95 in 10.0 mi South 29.9 mph 40.3 mph N/A   Clear
9:55 AM 64.4 °F 30.2 °F 28% 29.95 in 10.0 mi South 29.9 mph 41.4 mph N/A   Clear
10:15 AM 64.4 °F 32.0 °F 30% 29.95 in 10.0 mi SSW 29.9 mph 42.6 mph N/A   Clear
10:35 AM 64.4 °F 30.2 °F 28% 29.94 in 10.0 mi SSW 31.1 mph 46.0 mph N/A   Unknown
10:55 AM 66.2 °F 32.0 °F 28% 29.94 in 10.0 mi SSW 26.5 mph 39.1 mph N/A   Clear
11:15 AM 66.2 °F 30.2 °F 26% 29.93 in 10.0 mi SW 35.7 mph 49.5 mph N/A   Clear
11:35 AM 66.2 °F 30.2 °F 26% 29.93 in 10.0 mi SSW 28.8 mph 42.6 mph N/A   Clear
11:55 AM 68.0 °F 32.0 °F 26% 29.93 in 10.0 mi SSW 28.8 mph 43.7 mph N/A   Clear
12:15 PM 66.2 °F 28.4 °F 24% 29.92 in 10.0 mi SW 34.5 mph 47.2 mph N/A   Clear
12:35 PM 66.2 °F 30.2 °F 26% 29.91 in 10.0 mi SSW 32.2 mph 44.9 mph N/A   Clear
12:55 PM 68.0 °F 32.0 °F 26% 29.91 in 10.0 mi SSW 33.4 mph 47.2 mph N/A   Clear
1:15 PM 68.0 °F 32.0 °F 26% 29.90 in 10.0 mi SW 29.9 mph 41.4 mph N/A   Clear
1:35 PM 68.0 °F 32.0 °F 26% 29.90 in 10.0 mi SSW 34.5 mph 44.9 mph N/A   Clear
1:55 PM 68.0 °F 30.2 °F 24% 29.90 in 10.0 mi SSW 33.4 mph 51.8 mph N/A   Clear
2:15 PM 69.8 °F 28.4 °F 21% 29.90 in 10.0 mi SSW 38.0 mph 47.2 mph N/A   Clear
2:35 PM 68.0 °F 28.4 °F 23% 29.90 in 10.0 mi SSW 32.2 mph 43.7 mph N/A   Clear
2:55 PM 69.8 °F 28.4 °F 21% 29.89 in 10.0 mi SSW 26.5 mph 40.3 mph N/A   Clear
3:15 PM 68.0 °F 28.4 °F 23% 29.89 in 10.0 mi South 35.7 mph 46.0 mph N/A   Clear
3:35 PM 68.0 °F 28.4 °F 23% 29.88 in 10.0 mi SSW 29.9 mph 41.4 mph N/A   Clear
3:55 PM 68.0 °F 28.4 °F 23% 29.88 in 10.0 mi SW 32.2 mph 49.5 mph N/A   Clear
4:15 PM 68.0 °F 28.4 °F 23% 29.88 in 10.0 mi SSW 34.5 mph 43.7 mph N/A   Clear
4:35 PM 68.0 °F 28.4 °F 23% 29.88 in 10.0 mi SSW 27.6 mph 46.0 mph N/A   Clear
4:55 PM 66.2 °F 30.2 °F 26% 29.88 in 10.0 mi SSW 27.6 mph 43.7 mph N/A   Clear
5:15 PM 66.2 °F 32.0 °F 28% 29.89 in 10.0 mi SSW 28.8 mph 34.5 mph N/A   Clear
5:35 PM 64.4 °F 32.0 °F 30% 29.89 in 10.0 mi SSW 28.8 mph 40.3 mph N/A   Clear
5:55 PM 64.4 °F 32.0 °F 30% 29.89 in 10.0 mi SSW 23.0 mph 36.8 mph N/A   Clear
6:15 PM 62.6 °F 32.0 °F 32% 29.90 in 10.0 mi SSW 19.6 mph 24.2 mph N/A   Clear
6:35 PM 62.6 °F 32.0 °F 32% 29.90 in 10.0 mi SSW 18.4 mph 26.5 mph N/A   Clear
6:55 PM 62.6 °F 32.0 °F 32% 29.89 in 10.0 mi SSW 17.3 mph 26.5 mph N/A   Clear
7:15 PM 62.6 °F 32.0 °F 32% 29.89 in 10.0 mi SSW 17.3 mph 24.2 mph N/A   Clear
7:35 PM 60.8 °F 32.0 °F 34% 29.90 in 10.0 mi SSW 16.1 mph 25.3 mph N/A   Clear
7:55 PM 60.8 °F 33.8 °F 36% 29.90 in 10.0 mi SW 15.0 mph - N/A   Clear
8:15 PM 59.0 °F 33.8 °F 39% 29.90 in 10.0 mi SSW 15.0 mph 20.7 mph N/A   Clear
8:35 PM 59.0 °F 35.6 °F 42% 29.90 in 10.0 mi SSW 17.3 mph 23.0 mph N/A   Clear
8:55 PM 59.0 °F 37.4 °F 45% 29.90 in 10.0 mi SSW 18.4 mph - N/A   Clear
9:15 PM 59.0 °F 37.4 °F 45% 29.90 in 10.0 mi SSW 20.7 mph 29.9 mph N/A   Clear
9:35 PM 59.0 °F 37.4 °F 45% 29.90 in 10.0 mi SSW 19.6 mph 26.5 mph N/A   Clear
9:55 PM 59.0 °F 39.2 °F 48% 29.90 in 10.0 mi SSW 20.7 mph 28.8 mph N/A   Clear
10:15 PM 59.0 °F 39.2 °F 48% 29.91 in 10.0 mi SSW 20.7 mph 27.6 mph N/A   Clear
10:35 PM 59.0 °F 39.2 °F 48% 29.92 in 10.0 mi SSW 17.3 mph - N/A   Clear
10:55 PM 57.2 °F 39.2 °F 51% 29.92 in 10.0 mi SW 17.3 mph 27.6 mph N/A   Clear
11:15 PM 57.2 °F 39.2 °F 51% 29.92 in 10.0 mi SW 19.6 mph 26.5 mph N/A   Clear
11:35 PM 57.2 °F 39.2 °F 51% 29.92 in 10.0 mi SSW 25.3 mph 31.1 mph N/A   Clear
11:55 PM 57.2 °F 39.2 °F 51% 29.91 in 10.0 mi SSW 21.9 mph 27.6 mph N/A   Clear